Wind_Speed
21 21 21 21 21 20 20 20 20 19 19 19 19 19 19 19 19 19 19 19 19 19 19 19 18 18 18 18 18 18 18 19 19 19 19 19 19 19 20 21 21 22 22 23 23 23 24 24 24 25 25 25 25 25 24 24 25 24 23 22 22 22 23 25 26 25 25 25 25 24 23 22 24 25 24 23 23 24 24 25 25 23 24 25 24 23 22 21
23 23 23 23 23 23 23 22 22 22 22 22 22 22 22 22 22 22 22 22 22 22 22 22 22 22 21 21 21 21 21 22 23 22 22 22 22 22 22 23 24 24 25 25 26 26 26 26 26 27 26 26 26 25 25 25 25 24 24 22 22 24 25 26 28 28 28 27 27 26 24 23 24 26 26 25 25 25 25 26 26 23 25 27 26 24 22 22
26 26 26 26 25 25 25 25 25 25 25 25 25 25 25 25 25 25 25 25 25 25 25 25 25 25 24 24 24 23 24 25 26 25 24 24 24 25 25 26 26 26 26 27 27 28 28 28 28 28 27 27 26 26 25 25 26 24 24 23 23 25 26 27 30 31 31 29 27 26 25 24 25 26 25 26 26 26 25 27 27 23 25 29 28 25 23 22
29 29 28 28 28 28 28 28 28 28 28 27 28 28 28 28 28 28 28 28 28 28 28 28 28 28 27 26 26 26 26 27 28 27 25 25 25 26 27 27 27 27 27 27 28 28 28 29 29 29 28 27 26 26 26 27 27 25 25 25 25 27 27 28 31 31 31 30 28 27 25 24 25 26 25 27 26 25 25 28 28 24 24 28 29 27 25 24
32 31 31 31 31 31 31 31 31 31 31 30 31 30 31 30 30 30 30 30 30 30 30 30 29 29 28 27 26 25 26 27 29 27 25 25 26 26 27 27 27 27 27 27 28 28 28 29 29 29 28 27 27 27 27 28 29 27 25 27 28 30 29 28 30 31 31 31 28 27 26 26 26 26 26 27 25 23 25 28 28 25 24 25 26 26 25 25
33 33 33 33 33 33 32 32 32 32 32 32 32 31 31 31 30 30 29 29 29 28 28 28 27 26 25 24 23 22 22 26 28 26 24 26 26 26 27 27 27 27 27 28 28 29 29 29 29 29 29 28 28 28 29 30 31 30 27 28 31 32 30 28 30 31 31 31 30 29 28 28 28 28 25 23 23 22 25 28 28 26 24 22 23 24 25 25
32 32 32 32 32 32 32 32 31 31 31 31 30 29 29 28 28 27 27 27 26 25 25 25 24 23 23 20 20 19 20 26 29 26 25 27 27 27 27 27 28 27 28 28 29 30 30 30 30 31 31 30 30 30 32 33 33 33 30 30 32 32 30 29 30 31 31 31 31 32 31 30 31 31 22 19 21 22 24 28 29 27 25 24 23 25 26 26
30 30 30 30 30 30 30 29 29 29 28 28 28 27 27 27 27 27 27 26 26 25 25 25 24 24 23 21 20 19 21 29 31 28 28 29 28 29 29 28 29 29 29 30 30 31 31 31 32 33 33 33 33 33 34 36 35 34 33 32 31 31 31 31 31 31 32 32 34 35 34 32 34 33 20 17 23 26 26 29 29 29 27 26 26 27 28 27
31 31 30 30 30 30 29 29 29 28 28 28 28 28 27 28 28 28 29 28 28 28 27 28 27 26 25 24 22 19 25 32 31 31 31 30 30 30 30 30 31 31 31 31 32 33 33 34 34 35 36 35 35 35 35 37 36 34 34 33 31 31 32 31 31 32 34 34 36 38 37 34 36 35 22 17 26 31 31 30 29 30 27 26 26 27 29 29
34 33 33 32 32 32 32 32 31 31 31 30 30 30 30 31 31 32 32 32 32 32 32 32 31 30 28 27 25 21 28 34 32 32 33 32 32 32 32 32 32 33 33 33 34 35 35 36 36 37 38 37 36 35 35 36 36 35 35 35 33 33 32 32 31 33 36 37 38 40 40 37 37 37 27 21 29 33 33 32 31 30 27 26 26 27 28 29
37 36 36 35 35 35 35 35 35 35 35 34 34 34 34 34 35 35 36 36 35 35 35 35 34 33 31 30 27 24 31 35 33 35 35 34 35 34 34 34 34 34 35 35 36 36 37 37 37 38 39 38 36 36 36 36 37 36 36 36 34 34 33 32 32 34 38 38 38 41 42 38 37 36 31 29 34 34 33 33 32 31 28 27 27 27 28 27
39 38 38 37 37 37 37 37 37 37 37 36 36 36 36 36 36 36 37 37 37 37 37 37 36 35 34 31 28 29 32 34 34 36 36 37 37 36 36 35 35 36 36 36 37 37 37 37 38 39 39 39 38 38 38 37 38 37 37 38 36 35 33 31 34 38 39 38 37 42 45 40 36 35 32 34 38 36 34 33 32 31 29 28 28 28 28 27
40 39 39 38 38 38 38 38 38 38 38 38 37 37 37 37 37 37 38 38 39 39 39 39 38 38 37 32 30 32 33 33 36 37 38 38 38 37 37 37 37 37 37 37 38 38 39 39 40 41 41 41 41 40 40 38 39 38 38 40 39 38 34 31 37 40 38 37 38 43 48 43 37 34 33 36 39 39 37 35 33 31 30 29 29 30 29 28
40 40 40 39 39 39 39 39 40 40 40 40 39 39 39 39 39 39 40 41 41 41 41 41 41 40 40 35 32 34 34 35 37 38 39 39 38 38 38 38 38 37 38 38 38 39 40 40 42 43 43 43 42 41 41 40 40 39 39 41 41 43 39 34 37 39 36 37 39 45 50 47 39 35 33 37 40 40 39 36 33 31 29 30 30 30 30 29
43 42 42 42 42 42 43 43 43 43 42 42 42 42 42 42 42 42 42 42 43 43 43 43 42 43 42 37 34 34 35 36 38 39 40 39 39 38 38 39 39 39 39 39 39 40 41 42 43 44 44 44 43 42 42 43 43 40 42 44 43 44 43 38 37 37 37 38 40 45 50 48 41 35 34 37 39 39 39 37 33 30 28 27 27 28 29 29
45 45 45 45 45 45 45 45 45 45 44 44 43 43 43 43 43 43 43 43 44 44 44 44 43 44 44 39 36 35 36 38 39 40 40 40 40 39 39 40 40 41 41 40 41 41 42 43 45 46 46 45 44 43 43 46 45 42 45 48 45 44 45 42 37 35 36 39 42 45 48 47 42 37 36 37 38 38 38 35 32 28 26 26 26 27 28 29
47 47 47 47 47 46 46 46 46 46 45 45 45 44 44 44 44 44 44 44 44 44 44 45 44 44 45 42 38 37 38 40 41 41 41 40 40 40 41 41 41 42 42 42 43 43 44 46 47 47 47 46 43 42 46 49 47 46 47 48 47 46 46 44 40 35 36 41 45 46 46 45 43 40 38 37 37 38 37 34 31 28 26 27 27 28 27 28
47 47 47 47 47 47 46 46 46 46 46 45 45 45 45 45 45 45 46 45 45 45 45 45 45 45 46 44 41 40 41 41 41 41 41 41 41 41 42 42 42 43 43 44 44 45 47 48 49 49 48 45 43 44 49 50 49 49 49 48 49 48 47 46 42 39 39 42 46 47 46 45 43 41 38 36 37 37 36 33 31 29 28 27 27 27 26 27
48 48 48 47 47 47 47 46 46 46 46 46 45 45 46 46 47 47 47 47 47 46 47 46 46 46 46 45 43 43 43 42 42 42 41 41 42 43 43 44 44 45 45 46 46 47 48 49 50 50 47 45 45 48 50 50 49 50 50 50 51 50 50 47 44 43 43 45 47 46 46 47 45 42 39 37 37 38 35 32 31 31 29 28 27 27 27 28
49 49 48 48 48 48 48 48 47 47 47 47 47 47 47 48 49 49 49 49 49 49 49 48 48 48 47 47 47 47 46 45 44 43 42 42 43 44 45 45 45 46 46 47 48 48 49 50 51 49 47 47 48 50 50 50 50 51 52 53 52 53 52 49 47 47 47 49 50 47 47 50 48 44 41 39 39 38 34 32 32 32 30 29 28 27 28 28
51 50 50 50 50 50 50 50 50 49 49 49 49 50 51 51 51 52 51 50 51 52 51 50 51 51 50 49 49 49 49 48 46 44 43 43 44 45 46 46 47 47 47 48 49 49 49 51 51 49 48 49 50 50 50 51 52 53 54 54 55 55 55 53 51 50 50 51 53 51 50 52 50 47 45 43 41 38 34 33 33 32 31 30 28 28 27 28
52 52 52 52 52 53 53 52 52 51 51 51 52 53 54 54 54 54 54 53 51 52 53 53 54 54 53 53 51 51 51 49 48 47 46 45 45 45 46 46 47 48 48 49 49 49 50 52 52 51 51 51 51 51 51 52 53 55 55 56 58 57 57 57 55 53 52 53 53 54 53 53 53 52 50 49 45 40 34 33 34 33 31 30 28 28 29 30
54 55 55 55 56 56 56 55 54 54 54 54 54 56 56 57 57 56 56 56 53 52 53 54 55 56 56 55 54 53 53 51 50 49 49 48 47 46 46 46 46 47 48 49 49 50 53 53 52 52 53 52 52 52 53 54 54 55 56 58 59 58 58 60 59 56 56 56 55 55 54 54 55 53 53 53 51 44 36 33 33 32 31 30 29 30 31 31
56 56 56 56 55 55 55 55 55 55 56 56 56 56 56 56 56 56 57 57 56 55 53 51 53 55 56 56 55 54 53 52 51 51 49 49 47 46 45 45 46 47 47 48 50 52 54 54 54 54 54 54 54 54 55 55 55 55 57 59 59 59 59 61 62 61 60 59 58 58 57 57 56 55 54 54 55 51 43 38 36 34 33 32 31 31 32 31
53 53 53 52 51 51 51 51 52 53 54 54 52 51 51 52 53 54 55 56 56 55 53 51 51 52 53 54 53 52 50 49 48 47 45 44 43 42 41 42 43 44 45 47 49 52 52 52 52 53 53 53 54 55 55 55 56 57 58 58 59 60 61 61 63 64 65 63 61 60 59 56 57 59 56 54 55 54 50 46 43 39 36 34 33 32 32 31
49 50 49 49 49 48 47 47 48 49 50 50 49 48 47 48 49 50 52 53 53 53 54 54 51 50 49 49 49 48 46 44 43 42 40 39 39 40 40 40 41 42 43 45 47 49 48 47 47 49 50 51 52 52 51 53 56 58 57 55 57 59 61 62 62 64 66 66 64 62 61 58 57 60 59 55 55 54 53 51 47 42 39 37 36 35 34 33
49 50 50 50 50 50 48 47 47 47 47 47 47 46 46 46 47 49 50 51 53 53 55 55 52 49 47 45 45 44 43 43 43 42 40 40 39 39 40 40 40 42 43 44 46 47 45 45 46 47 48 49 50 49 50 52 55 57 56 55 57 59 60 62 63 64 65 66 66 65 65 63 61 62 62 60 59 57 54 53 50 45 42 41 39 39 38 36
49 49 50 51 51 51 50 50 49 48 48 48 48 48 48 48 47 48 48 51 53 54 54 53 50 48 46 44 43 42 41 42 42 42 42 41 41 40 41 41 41 42 43 45 46 46 45 46 47 47 48 47 47 48 49 51 53 54 55 56 58 59 60 61 62 64 64 65 67 66 65 65 63 63 63 63 62 60 56 53 51 48 46 45 41 40 41 40
49 48 48 50 50 50 49 49 49 48 48 48 48 49 49 49 50 49 49 52 55 55 54 51 49 48 47 46 45 44 44 43 43 43 43 43 43 43 44 44 44 45 45 46 47 47 46 47 48 49 49 47 47 47 48 49 50 52 53 55 57 58 60 61 62 62 63 64 66 65 63 62 62 62 62 63 63 60 56 52 50 50 50 50 48 44 43 43
48 49 49 49 48 48 47 48 47 46 47 47 48 48 48 49 50 51 53 55 56 55 53 52 51 50 49 50 50 49 49 48 48 48 47 47 47 48 48 48 49 50 50 50 49 49 49 49 50 50 50 49 49 49 49 49 50 50 51 53 54 56 58 60 61 61 62 63 63 61 59 58 60 62 62 62 60 58 55 50 46 48 50 51 52 51 48 48
42 46 49 50 50 50 50 50 49 48 49 50 50 50 50 50 51 53 57 57 55 53 53 53 53 52 52 53 53 53 53 52 53 52 53 53 53 53 53 53 54 55 56 56 55 54 54 53 53 52 52 51 51 51 51 51 50 49 50 52 53 56 57 59 60 60 60 61 60 59 58 57 59 61 61 60 56 53 53 50 45 45 48 50 51 52 53 53
45 46 50 52 54 54 54 54 53 53 54 54 54 53 53 54 55 57 59 57 53 54 53 54 55 55 55 56 56 56 56 56 57 57 57 58 57 57 57 58 58 59 60 61 60 60 60 58 57 57 56 54 54 54 54 54 53 52 52 52 52 54 55 57 59 58 58 58 58 59 59 60 59 59 59 56 52 49 48 48 46 45 47 48 49 51 54 55
57 56 57 59 57 53 51 52 53 54 56 57 57 57 56 57 59 60 60 56 53 54 54 55 57 57 58 59 60 61 61 60 59 59 60 60 60 60 59 59 59 59 60 62 62 63 63 61 60 59 58 57 57 56 56 56 56 55 54 52 52 52 55 58 58 57 57 57 58 59 60 61 60 58 57 53 51 51 49 47 48 50 52 52 52 53 55 56
60 60 60 59 55 49 47 47 48 48 49 51 52 53 55 59 61 59 58 55 54 54 54 56 58 59 61 62 63 64 63 63 62 60 59 60 60 60 59 58 57 56 56 58 61 62 63 63 62 59 57 57 57 57 56 57 57 57 56 56 57 57 58 58 58 59 60 60 59 59 61 61 59 58 57 54 54 55 55 55 54 56 58 57 57 57 58 60
58 58 57 55 53 51 49 47 46 47 47 47 49 52 54 57 57 55 55 56 56 57 57 58 60 62 64 65 65 66 65 64 64 62 60 60 59 59 58 57 55 55 54 56 58 59 60 63 63 60 57 55 54 55 56 56 57 58 58 59 60 59 57 58 61 62 62 64 64 63 64 62 59 58 58 59 61 62 63 64 63 63 63 62 61 61 61 62
63 62 61 60 60 61 60 58 56 56 57 57 59 60 57 57 58 58 59 60 60 61 61 61 63 64 65 66 66 66 65 64 62 61 61 61 61 61 60 58 56 56 55 56 57 58 60 63 62 60 59 58 56 56 56 56 57 59 59 59 58 57 57 60 64 64 63 67 69 67 68 66 63 63 63 65 68 68 68 68 67 66 64 62 62 61 60 61
68 68 67 67 67 67 67 65 63 64 63 64 67 68 64 64 64 62 62 62 61 62 61 60 62 63 64 65 65 65 65 64 62 62 61 61 62 63 62 61 60 60 59 59 59 60 62 64 64 63 62 61 60 59 59 59 59 59 59 58 57 59 60 61 62 62 62 65 67 67 68 68 67 68 69 70 71 71 70 69 67 65 63 61 61 60 60 61
69 69 68 68 67 67 66 65 64 63 62 63 68 69 66 64 62 59 57 57 57 59 60 60 61 61 62 63 64 65 65 65 65 64 63 63 63 63 62 61 63 62 62 62 62 62 63 64 65 65 64 63 61 60 62 62 62 61 60 59 58 59 59 59 59 59 58 59 62 62 62 63 65 66 67 70 71 70 69 65 63 63 64 64 64 64 65 64
68 68 67 66 65 65 64 63 61 60 60 63 64 63 61 59 57 56 56 57 58 59 61 61 61 62 63 63 64 65 65 66 65 65 65 65 65 65 64 63 63 63 62 62 62 63 63 63 65 66 65 65 64 62 63 61 59 59 60 60 61 60 59 59 59 59 59 60 61 60 58 58 59 59 60 64 67 68 67 64 63 64 64 65 66 67 69 69
65 65 65 64 64 64 63 62 61 61 62 63 61 60 60 60 59 59 60 61 62 62 63 63 63 63 64 64 64 64 64 64 64 64 65 66 65 65 63 63 62 62 62 62 62 62 62 63 65 64 63 65 66 64 62 60 59 60 60 59 59 60 61 62 62 60 60 63 64 63 63 62 59 58 61 64 66 66 67 68 68 68 67 66 66 66 68 69
65 65 65 64 64 65 65 65 65 65 65 65 64 62 62 61 61 62 62 62 62 62 62 62 62 63 63 63 62 62 62 63 63 64 65 64 64 64 62 61 61 61 61 61 61 61 62 63 64 64 64 65 65 63 62 62 62 61 56 53 53 56 57 59 61 60 60 63 64 64 66 65 60 59 62 65 65 65 66 67 69 70 70 70 69 68 67 67
66 67 67 67 68 68 69 69 69 69 69 68 66 63 62 61 61 61 61 60 59 59 58 59 59 60 61 61 61 60 61 62 62 62 63 63 62 63 62 61 61 61 61 61 61 61 62 63 64 65 65 63 61 60 61 62 60 58 55 53 54 56 55 57 59 59 60 63 62 61 63 63 58 56 58 61 62 62 63 64 66 67 69 71 73 73 72 72
67 68 68 68 68 69 70 70 69 70 69 67 65 63 62 62 61 59 59 58 57 57 57 58 58 59 59 59 60 60 60 62 62 61 61 62 61 61 61 60 60 60 60 61 61 60 61 62 63 63 62 60 58 56 56 55 54 55 55 55 56 58 58 59 61 60 60 62 61 60 63 63 58 55 57 59 59 60 62 62 63 65 66 67 70 72 74 76
67 68 67 67 67 68 68 68 67 66 65 64 64 62 61 61 60 59 58 58 57 58 58 59 58 58 58 58 59 59 59 61 62 61 61 61 61 61 60 60 59 59 59 60 61 61 61 60 58 57 57 57 57 56 56 56 55 55 55 56 57 58 57 59 59 58 59 61 59 59 64 63 58 55 56 56 56 57 58 58 58 61 63 66 68 69 70 72
67 67 66 66 66 66 66 65 64 63 63 62 62 61 60 60 59 57 57 57 58 59 59 59 58 58 58 58 59 59 58 59 60 61 61 61 61 60 60 60 59 58 58 58 58 57 57 56 55 55 57 58 59 60 60 60 60 59 59 58 57 57 57 58 58 58 59 60 59 59 62 61 57 56 57 56 57 59 60 60 60 62 66 68 70 72 74 75
65 65 65 64 64 65 64 64 63 62 61 61 61 60 59 59 58 57 57 58 59 59 60 59 59 59 59 59 59 59 58 58 59 60 60 60 60 59 59 59 59 58 57 57 56 54 55 57 57 57 58 60 61 61 61 63 64 64 63 62 61 61 60 61 63 64 64 64 65 63 63 64 63 61 62 63 63 65 66 66 67 67 68 69 70 72 74 77
65 65 64 64 64 64 64 63 62 61 60 60 61 60 59 59 58 58 58 59 59 59 60 60 60 60 60 59 58 59 58 57 58 59 58 58 59 59 58 58 58 58 57 57 57 57 58 60 60 59 60 61 61 62 62 64 65 65 64 64 63 63 63 64 67 68 67 70 73 69 67 70 71 68 68 70 70 70 71 72 73 73 73 74 75 76 77 79
65 65 65 64 64 64 63 62 61 61 61 60 61 60 59 59 59 59 58 59 59 59 60 61 60 59 59 59 59 59 59 58 58 58 58 58 58 58 58 58 58 58 58 59 59 59 60 62 61 61 62 62 61 62 63 65 66 66 66 65 65 65 65 67 69 69 69 73 75 72 70 73 73 71 72 73 74 75 75 76 76 77 77 78 79 80 81 82
64 63 63 63 62 62 61 61 60 60 60 60 60 60 59 58 58 59 59 59 60 60 60 60 60 59 59 59 59 59 59 59 59 58 58 58 58 58 59 59 59 58 58 59 60 61 62 63 63 64 65 64 63 64 65 67 68 69 69 69 68 68 68 69 70 70 71 73 74 73 74 75 73 73 74 74 74 75 75 75 76 76 77 78 79 80 80 82
62 61 60 60 60 59 59 59 59 59 59 60 60 59 58 58 58 59 60 60 61 60 60 60 60 60 59 59 59 60 59 58 59 59 58 58 58 58 59 60 59 59 59 59 60 62 63 63 64 65 67 66 64 64 66 68 70 71 72 71 70 70 71 71 71 70 70 72 72 72 74 75 74 74 74 74 74 75 76 77 77 78 79 79 79 80 80 81
60 59 59 58 58 58 58 58 58 58 58 58 59 58 58 58 58 59 60 60 60 60 60 60 60 60 59 59 58 58 58 58 58 58 57 57 58 58 58 59 58 58 58 58 59 61 62 62 63 64 68 67 64 65 68 69 70 73 72 70 69 71 73 72 71 70 70 72 73 73 75 77 76 76 76 77 78 78 79 79 79 79 79 79 79 79 79 79
59 59 58 58 58 57 57 57 57 58 58 57 57 57 57 58 58 59 60 60 59 59 59 58 58 58 58 57 57 57 57 57 57 58 57 57 58 58 58 58 58 58 58 59 60 61 62 64 65 66 70 70 67 69 71 72 75 76 72 69 71 73 74 74 74 73 73 74 75 76 78 79 78 79 79 80 80 80 79 79 78 79 79 80 80 80 80 80
Wind_Direction
255 256 258 259 260 261 262 263 264 265 266 267 268 270 271 274 276 278 280 281 283 283 284 285 285 286 287 287 288 288 287 286 284 282 282 281 281 282 282 283 284 284 285 286 288 289 290 291 292 293 294 294 296 296 297 298 298 300 302 306 306 301 299 301 301 300 302 304 305 303 301 301 296 294 298 299 297 292 289 285 281 283 282 281 280 281 282 280
257 258 259 261 262 263 264 265 265 266 267 268 269 270 272 273 275 277 278 279 280 281 282 282 283 284 285 286 287 288 288 287 284 282 282 282 281 281 281 282 283 284 285 286 287 288 289 290 291 291 292 293 294 294 295 296 296 298 301 304 302 297 299 302 299 300 303 304 303 302 300 300 295 294 298 298 295 292 291 285 283 289 288 285 284 285 285 281
259 260 261 262 263 264 265 266 267 268 268 270 271 272 273 274 275 276 277 278 279 279 280 280 281 282 283 284 285 286 286 285 283 281 281 281 281 280 280 281 282 283 285 286 287 287 288 288 289 290 290 291 292 292 293 293 293 296 299 301 298 295 300 300 298 301 303 302 302 300 299 300 295 294 297 295 293 293 292 285 286 293 291 289 291 291 287 282
260 261 262 263 264 265 266 267 268 269 270 271 272 273 274 274 276 276 277 278 278 279 279 279 280 281 281 282 283 284 284 282 280 279 279 279 279 279 280 281 282 284 285 286 286 287 287 288 288 288 289 289 290 290 291 291 292 295 297 298 296 294 298 298 297 300 301 301 301 298 298 297 294 294 295 295 298 299 292 286 289 294 291 291 293 294 292 286
262 263 264 264 265 266 267 268 269 270 271 272 273 274 274 275 276 276 277 277 277 277 277 278 278 279 280 280 281 282 282 280 278 278 279 279 279 280 281 283 284 285 286 286 285 286 286 286 287 287 287 288 288 289 290 290 291 293 295 296 294 294 297 297 296 299 300 300 299 296 296 296 293 292 295 303 311 304 292 288 290 291 290 290 292 295 295 291
263 264 265 266 266 267 267 268 269 270 271 272 273 274 274 275 275 276 276 275 276 276 277 277 277 278 278 279 280 280 282 280 276 278 281 281 282 283 284 284 284 285 285 285 285 285 285 285 286 286 286 287 287 289 289 289 291 293 295 294 293 294 298 297 295 298 299 298 297 295 295 295 293 292 300 321 323 303 290 286 285 286 287 289 292 294 293 293
263 264 265 266 266 267 267 268 268 269 269 270 271 271 272 273 273 274 274 274 275 275 277 277 278 278 278 279 279 281 284 277 275 280 283 284 285 285 284 284 284 284 284 284 284 285 285 285 285 285 285 286 287 288 289 289 290 293 295 292 292 296 297 295 295 298 296 295 294 292 294 294 292 294 309 336 322 298 287 282 281 284 286 288 290 290 290 290
262 263 264 265 266 266 267 267 267 268 268 268 268 269 269 270 271 272 272 273 273 274 275 275 276 276 276 276 275 280 279 272 275 282 283 284 284 283 283 283 284 285 285 285 285 285 285 285 285 285 286 286 287 288 289 289 291 294 293 291 293 296 295 294 296 296 294 293 292 290 291 290 290 297 319 337 308 292 285 283 286 289 290 291 290 288 287 287
262 262 263 264 265 266 266 266 267 267 267 267 268 268 269 269 270 271 272 273 274 274 274 275 275 274 275 274 273 277 273 270 277 282 281 282 281 280 282 283 284 285 285 285 286 286 285 285 286 286 286 286 287 288 288 290 292 293 292 293 294 294 293 294 294 294 292 290 289 289 289 289 291 299 320 324 296 289 289 290 293 294 297 296 292 287 285 284
261 262 262 263 264 264 265 266 266 266 266 267 267 268 269 270 271 271 272 273 274 274 274 274 275 275 275 274 275 275 271 273 278 280 280 280 280 280 282 283 284 285 285 286 285 285 285 286 286 287 286 287 288 289 289 290 292 292 292 293 293 292 291 292 293 291 288 286 287 289 290 292 294 299 313 308 289 287 291 293 294 296 300 298 294 290 286 285
260 260 261 262 263 263 264 265 265 265 265 266 266 267 268 269 270 271 272 273 273 274 274 274 274 274 274 274 276 272 270 275 279 278 279 279 279 280 281 282 283 284 285 285 285 285 285 285 286 286 286 288 289 289 290 291 292 292 292 291 290 289 290 292 291 286 283 285 290 291 291 292 295 299 306 299 288 288 290 293 294 296 299 298 296 294 291 290
259 260 260 261 262 263 263 264 265 265 266 266 267 267 268 269 270 271 272 273 274 274 274 274 274 274 273 273 274 271 270 275 276 276 277 278 278 279 280 281 282 282 283 284 284 284 284 284 285 285 287 288 289 290 291 292 291 291 291 289 288 287 287 290 287 281 283 290 293 292 290 290 293 296 299 294 290 291 292 292 293 294 298 298 297 295 294 293
260 260 261 261 262 262 263 264 265 266 266 267 268 268 269 270 271 271 272 273 273 274 274 274 274 274 273 273 272 271 271 272 272 273 274 275 277 278 279 280 281 281 282 282 282 283 283 284 285 286 287 289 290 291 291 291 290 289 289 288 289 287 285 284 280 281 288 294 294 291 289 290 291 293 294 290 289 290 291 291 291 294 298 298 296 295 294 293
262 262 263 263 264 264 265 265 266 267 268 269 269 270 270 270 271 271 272 272 273 273 273 273 274 274 273 272 271 270 271 270 270 270 271 273 274 275 277 278 279 279 279 279 280 281 283 284 285 286 287 289 290 291 291 290 287 288 288 286 287 285 282 281 281 286 292 292 291 288 287 288 289 292 293 288 287 288 289 290 292 296 298 296 295 294 292 290
262 263 264 264 265 265 266 266 267 267 268 268 269 269 269 269 269 270 270 270 271 271 272 272 273 273 273 272 270 269 269 269 269 269 270 271 272 273 274 275 276 276 277 277 278 279 281 282 283 284 286 288 289 291 291 288 286 288 288 284 282 282 283 283 284 289 292 290 287 285 285 286 287 291 291 287 287 289 290 292 296 299 297 293 291 289 286 284
262 263 264 264 264 265 265 266 266 267 267 267 267 267 268 268 268 268 268 268 269 270 271 271 272 273 273 272 271 270 269 269 269 269 270 271 272 273 273 274 275 275 276 277 278 278 279 280 281 283 285 286 289 292 291 287 287 288 285 282 282 284 285 286 286 289 291 289 285 283 283 286 289 292 290 288 290 292 293 297 300 299 294 288 284 280 278 279
264 264 264 264 265 265 265 266 267 267 268 268 268 268 269 269 269 269 269 269 269 270 270 271 271 271 272 273 271 270 269 268 268 269 270 271 272 272 273 273 274 275 276 276 277 278 279 279 280 282 283 285 289 291 288 285 286 285 282 283 285 286 286 287 288 290 289 285 282 280 281 284 289 290 288 289 291 293 295 298 300 297 289 283 281 279 278 277
264 265 265 266 266 267 267 267 268 269 270 270 271 271 272 272 272 272 272 271 271 271 271 271 272 272 273 273 272 270 268 267 268 269 269 270 271 272 272 272 272 273 274 274 276 277 277 278 279 280 281 285 289 287 283 283 284 284 283 284 285 285 286 287 290 291 285 279 277 277 279 282 284 285 287 290 291 290 292 296 296 291 285 282 282 283 280 273
264 265 265 266 267 267 268 268 269 269 270 271 271 272 273 273 274 274 274 274 274 273 273 273 273 274 274 275 275 272 270 269 269 269 270 271 271 271 271 271 271 272 272 273 275 275 276 277 278 279 282 286 285 281 279 281 283 283 284 284 284 285 285 287 290 289 284 278 274 275 279 281 282 284 287 288 287 287 289 292 289 286 284 283 283 281 276 270
264 265 265 266 266 267 267 267 268 268 269 270 270 271 270 271 272 272 273 274 274 274 274 275 275 274 274 276 276 275 275 274 273 272 273 273 272 272 271 271 271 271 272 273 273 273 275 276 276 279 282 282 279 278 279 281 282 282 282 283 283 284 285 287 288 287 285 282 281 280 280 281 282 284 286 285 283 283 287 287 284 284 283 282 282 277 270 266
266 266 266 266 266 266 267 267 267 267 268 269 270 270 269 269 269 269 270 271 273 274 273 274 273 273 274 274 273 275 275 275 277 277 276 275 274 273 272 271 271 271 271 271 271 273 274 274 276 278 279 277 277 278 279 280 280 280 281 282 282 283 285 286 285 284 284 284 286 287 286 284 285 286 285 283 281 281 284 284 283 282 282 282 279 271 264 261
266 266 266 266 266 266 266 266 267 267 268 269 269 269 269 269 269 269 269 268 269 271 273 273 273 273 275 274 273 273 273 275 278 278 277 275 274 273 272 270 270 270 270 270 271 273 273 273 275 276 276 275 276 277 277 277 277 278 279 281 281 282 284 284 283 282 283 283 284 287 286 287 289 288 286 284 283 282 283 283 282 281 279 278 274 268 264 263
264 265 266 266 266 266 266 266 266 266 267 267 267 268 268 268 268 268 269 269 269 269 270 271 273 274 275 275 275 275 275 276 277 278 277 277 275 274 272 271 270 269 269 271 272 272 271 272 273 274 274 275 275 274 274 274 274 276 277 278 279 281 282 283 283 282 282 282 283 284 284 285 286 285 286 286 286 286 286 283 281 280 279 276 271 268 268 268
263 264 265 265 266 266 265 264 263 264 264 265 266 267 267 267 267 267 269 271 272 272 271 270 272 274 275 276 276 277 278 278 279 280 280 279 278 277 275 273 271 270 270 270 270 269 270 271 272 273 274 274 274 273 273 273 274 275 275 276 278 279 280 281 283 282 281 281 282 283 283 284 284 282 283 286 288 291 292 288 284 284 284 279 273 269 268 268
262 262 263 264 265 266 265 264 263 262 263 264 266 267 268 268 268 269 271 272 273 275 275 273 272 273 274 276 277 279 280 280 281 282 282 281 281 279 277 275 274 273 271 270 269 269 270 271 272 273 274 274 273 273 274 274 274 274 274 276 277 278 279 280 281 282 282 282 281 282 282 282 281 281 282 285 288 291 293 291 289 289 287 281 274 268 266 266
260 260 261 262 264 265 266 266 266 265 266 266 267 269 270 271 271 272 273 274 275 276 277 276 275 275 275 276 277 279 282 282 282 282 281 281 280 279 279 277 276 275 274 273 272 272 273 272 273 273 273 273 273 273 274 274 274 274 275 276 277 277 278 279 280 280 281 281 281 282 282 279 278 281 284 286 288 288 289 291 292 291 288 283 277 271 267 267
263 262 261 261 263 263 264 266 267 268 270 271 271 272 272 273 274 274 275 276 276 277 277 277 278 278 278 279 279 279 281 282 283 282 282 282 281 280 279 278 278 277 277 276 276 276 276 275 274 273 272 272 273 274 274 274 275 276 277 277 276 277 277 278 278 279 279 280 281 281 282 281 280 282 286 288 287 286 288 291 293 293 289 285 281 278 274 271
266 265 263 262 262 264 265 266 267 269 271 273 273 274 274 275 275 276 277 277 275 275 276 278 280 281 282 283 283 283 282 281 281 280 281 281 282 282 282 281 280 279 278 278 278 278 278 277 276 275 274 275 275 275 274 275 276 277 277 277 277 277 277 278 278 278 278 278 278 279 281 282 281 282 285 286 286 288 289 292 295 295 292 290 286 281 277 275
269 268 267 265 265 267 268 268 269 271 273 274 274 275 276 277 276 277 277 275 273 273 275 278 280 282 284 286 287 286 284 282 280 279 278 279 280 281 281 282 281 281 280 279 279 280 280 280 280 279 279 279 278 277 277 278 278 277 277 277 277 277 277 277 277 277 277 276 277 278 281 282 280 280 281 281 285 289 290 294 297 297 296 294 290 285 279 275
270 269 268 266 265 267 269 269 269 269 269 270 272 274 275 275 275 276 275 272 272 273 275 277 279 282 285 287 287 286 284 283 282 281 280 279 279 278 278 279 279 279 280 279 279 279 279 280 280 280 281 281 281 280 280 280 279 279 278 278 278 278 277 276 275 275 275 275 275 277 280 281 279 278 278 280 285 289 291 293 294 294 292 291 289 287 283 279
264 265 266 265 265 269 271 270 269 267 265 266 268 269 270 271 272 272 272 271 272 274 275 278 281 284 285 285 285 284 284 285 285 285 284 283 281 281 281 281 280 280 280 280 280 279 278 277 277 277 277 278 278 278 277 277 277 278 278 277 277 276 275 275 274 273 273 274 275 277 277 276 275 276 277 279 283 287 289 291 291 289 288 287 286 285 283 281
259 262 266 267 270 275 275 273 271 269 266 265 266 267 268 269 267 267 269 272 274 276 278 280 281 283 283 283 284 284 284 285 285 285 285 285 285 285 285 286 286 285 284 283 282 280 278 278 279 278 278 278 277 276 276 276 277 277 276 276 276 276 275 274 272 272 273 273 274 275 274 273 273 273 274 276 279 282 284 287 288 288 287 287 285 283 281 280
258 261 265 269 272 275 275 274 273 272 270 269 269 269 269 268 266 266 269 273 276 278 279 279 280 281 282 283 283 283 284 283 283 284 284 285 286 286 287 287 288 287 286 285 284 283 281 279 279 280 280 280 280 280 280 279 278 278 277 276 275 275 275 274 274 274 273 272 272 272 271 271 271 271 270 273 276 279 279 279 281 284 285 285 285 284 283 281
256 258 262 265 268 270 272 274 275 274 273 272 271 271 269 268 268 269 272 274 275 275 275 277 279 281 281 281 282 282 283 283 283 283 284 284 284 285 285 286 287 287 286 286 286 285 284 282 281 281 280 280 280 280 280 279 278 278 278 277 275 275 276 276 276 275 273 272 271 269 268 268 270 270 271 273 276 279 280 278 278 281 283 283 282 282 281 281
256 256 257 258 260 264 267 268 268 269 269 271 271 269 268 269 271 273 274 274 274 274 275 276 278 279 279 279 280 281 283 284 284 284 283 283 283 283 283 284 284 284 284 284 284 284 284 284 285 285 283 281 279 277 277 278 278 278 278 277 278 278 278 278 277 276 275 273 270 268 268 267 267 269 271 275 277 278 279 280 280 281 281 281 281 280 280 279
262 261 262 263 265 268 268 268 268 268 269 270 270 269 269 272 274 275 276 276 277 278 279 279 278 278 279 279 280 281 282 282 283 283 284 284 284 284 285 285 283 282 282 281 282 282 282 283 285 284 284 283 281 279 278 277 277 277 277 277 279 280 278 278 278 277 276 274 271 270 269 268 267 267 268 271 275 276 277 278 279 279 279 279 279 279 278 277
267 268 269 271 272 274 274 274 274 273 273 272 272 272 272 274 276 278 278 278 279 279 280 280 280 280 281 281 281 282 282 282 283 283 284 285 285 285 286 286 285 284 284 284 283 283 283 283 282 282 282 282 282 282 282 280 279 279 279 279 279 279 278 278 278 277 276 276 275 274 273 271 270 268 267 270 273 275 276 277 277 277 277 276 276 275 275 275
268 269 270 271 273 274 275 275 276 276 275 274 275 276 277 278 279 279 278 278 278 278 279 279 280 281 281 282 283 283 284 284 285 285 286 285 285 285 285 285 285 286 286 286 286 285 285 285 283 282 282 283 282 282 282 282 282 283 283 282 280 279 278 277 277 277 278 278 279 278 276 273 272 270 270 271 273 274 275 275 274 273 272 272 272 272 272 272
268 269 270 271 273 274 274 275 275 275 274 275 277 279 279 279 278 278 278 278 278 278 278 279 280 280 282 283 283 284 284 284 285 285 285 285 285 286 286 286 286 287 286 286 285 286 286 286 285 285 285 285 284 284 283 283 283 282 282 282 281 280 279 278 278 279 280 279 279 279 277 273 273 273 272 272 271 271 272 272 272 272 271 271 270 270 269 269
269 270 271 271 272 274 275 275 274 274 275 276 278 278 278 278 278 278 279 278 278 277 278 279 280 281 282 283 283 283 283 283 283 283 283 284 285 285 286 286 287 286 285 285 285 285 285 284 285 286 286 285 286 286 286 285 283 282 281 280 279 278 278 279 278 279 279 279 278 278 276 276 276 275 274 273 272 271 270 271 271 272 272 272 270 268 266 266
268 269 270 270 272 273 274 274 275 276 277 277 278 279 279 278 278 278 277 277 276 277 278 279 280 281 282 282 282 281 281 281 281 282 282 283 284 284 284 284 284 284 284 284 284 284 284 283 284 285 285 285 286 286 285 283 282 282 279 276 276 277 277 277 277 278 277 276 276 276 277 278 278 276 276 276 275 273 271 270 269 269 269 268 267 266 265 264
267 268 268 269 270 271 272 273 274 275 276 278 279 279 278 278 277 277 277 277 277 277 278 279 280 280 280 280 280 280 280 280 280 280 281 282 282 282 283 284 283 283 283 283 282 282 282 282 282 282 283 284 284 283 282 281 280 278 275 274 275 276 275 275 275 277 276 275 275 276 276 276 277 278 277 275 273 272 271 269 269 269 268 267 266 265 265 264
267 268 268 269 269 270 271 272 273 274 275 277 277 277 277 278 278 279 279 279 279 279 279 278 279 279 279 280 280 280 280 280 280 280 281 281 281 282 283 283 282 282 282 282 282 282 281 282 282 283 283 282 281 280 278 277 276 274 274 274 275 274 275 275 276 276 275 274 274 274 274 275 276 277 275 273 272 271 271 270 269 268 267 267 266 266 266 266
268 268 268 269 269 270 270 272 273 274 274 275 275 275 276 277 278 279 279 278 278 278 278 278 279 279 279 279 279 280 280 280 280 281 281 281 282 282 282 282 282 282 282 282 282 282 282 282 282 281 281 280 280 279 277 276 274 273 273 274 274 275 276 276 276 275 273 272 272 271 271 273 274 273 270 269 271 271 271 270 268 267 268 268 268 268 268 268
268 269 269 269 270 270 271 272 273 273 273 274 274 275 275 276 277 277 277 277 277 277 278 279 279 279 279 279 279 279 279 279 279 280 280 281 281 281 281 281 281 281 281 281 282 281 280 279 277 276 277 278 278 279 278 276 274 273 273 274 274 275 275 276 275 272 270 271 272 270 270 272 271 269 268 268 269 268 267 266 266 267 268 269 269 269 269 269
269 270 270 270 270 270 271 271 272 272 273 273 273 273 274 275 276 276 276 276 277 278 278 279 279 279 279 279 279 278 278 278 278 279 280 280 280 280 280 280 281 281 280 280 279 278 277 276 275 275 275 275 277 278 278 276 275 275 275 275 275 275 275 274 272 270 270 272 271 269 270 271 269 269 270 270 268 266 265 264 265 265 265 264 265 266 266 267
270 270 270 270 270 270 271 271 271 272 272 272 272 273 273 274 275 275 276 276 277 277 278 278 279 279 279 279 278 278 278 278 278 278 280 280 279 279 279 279 279 279 279 278 277 276 275 275 276 276 275 275 277 277 277 277 277 276 277 277 277 277 276 273 271 271 273 272 270 271 272 272 272 272 271 270 268 266 266 266 266 266 266 265 264 265 266 266
269 269 270 269 269 270 270 270 270 270 270 271 272 272 273 274 275 275 275 276 276 276 277 277 278 278 278 278 278 278 278 278 277 277 278 278 278 278 278 278 277 277 277 277 276 276 275 276 277 276 275 275 276 277 278 278 277 277 278 277 276 276 275 274 274 274 274 273 273 275 274 273 273 273 271 269 269 268 268 268 268 268 268 267 267 267 267 267
267 268 268 268 268 268 269 269 269 269 269 269 270 271 272 273 273 274 274 274 274 275 275 276 276 276 277 277 277 277 277 277 277 277 277 277 277 277 277 277 276 277 277 276 277 276 276 277 277 277 276 276 276 277 277 277 277 277 277 277 276 276 275 275 276 277 276 275 275 276 275 273 273 272 271 270 270 269 269 269 269 269 269 269 268 268 268 268
265 265 265 266 267 267 267 267 267 268 268 269 270 271 271 271 272 272 272 273 273 273 273 274 274 275 275 274 275 275 276 276 276 276 276 276 276 276 276 276 277 277 276 276 276 276 276 277 277 278 278 277 277 278 277 276 276 276 276 276 277 278 277 277 277 277 276 275 276 276 275 275 275 273 272 271 271 271 271 271 272 272 272 271 271 270 270 270
264 264 264 265 265 266 267 267 268 268 268 269 270 271 270 271 271 271 271 272 272 273 273 273 274 274 274 274 274 275 275 275 275 275 275 275 276 276 275 276 276 276 276 276 276 276 277 277 277 278 278 277 278 278 277 277 277 276 276 279 281 281 279 278 277 275 275 275 275 275 275 275 275 274 274 273 273 273 274 274 275 275 275 275 275 275 274 274
263 264 264 265 265 266 266 267 267 268 269 270 270 270 271 271 271 271 271 272 272 273 273 274 274 274 274 274 275 275 275 275 276 276 276 276 276 276 276 276 276 277 277 277 276 276 277 278 278 278 279 279 279 279 279 278 276 276 279 283 282 280 279 278 277 276 275 275 275 275 275 275 275 275 276 276 276 276 276 276 277 277 278 277 277 277 276 276
Height
5884 5885 5885 5885 5885 5885 5885 5886 5886 5886 5886 5886 5886 5886 5886 5887 5887 5887 5887 5887 5888 5888 5888 5888 5888 5888 5888 5888 5888 5888 5888 5888 5887 5887 5887 5887 5887 5887 5886 5886 5885 5885 5884 5884 5884 5883 5883 5882 5882 5881 5880 5880 5879 5879 5878 5878 5877 5876 5876 5876 5875 5873 5871 5870 5868 5868 5868 5868 5867 5867 5866 5866 5864 5862 5862 5862 5861 5860 5859 5857 5857 5858 5857 5856 5857 5856 5857 5856
5882 5882 5883 5883 5883 5883 5883 5883 5883 5884 5884 5884 5884 5884 5884 5885 5885 5885 5885 5885 5886 5885 5886 5885 5886 5886 5886 5886 5886 5886 5886 5885 5884 5885 5885 5885 5885 5885 5884 5884 5883 5883 5882 5882 5881 5881 5880 5880 5879 5878 5878 5877 5876 5876 5875 5875 5874 5874 5874 5874 5873 5870 5869 5868 5865 5865 5865 5865 5865 5864 5863 5863 5862 5860 5860 5860 5859 5857 5857 5854 5853 5856 5855 5853 5853 5854 5855 5854
5879 5880 5880 5880 5880 5880 5881 5881 5881 5881 5881 5882 5882 5882 5882 5882 5883 5883 5883 5883 5883 5883 5883 5883 5883 5883 5884 5884 5884 5884 5884 5882 5881 5882 5882 5882 5882 5882 5881 5881 5881 5880 5880 5880 5879 5878 5877 5877 5876 5875 5875 5874 5874 5873 5872 5872 5871 5872 5871 5871 5870 5868 5868 5866 5863 5862 5862 5862 5862 5861 5861 5861 5859 5858 5858 5857 5856 5855 5854 5852 5851 5854 5852 5849 5849 5851 5852 5851
5877 5877 5877 5877 5878 5878 5878 5878 5878 5879 5879 5879 5879 5879 5880 5880 5880 5880 5880 5880 5880 5880 5880 5880 5880 5881 5881 5881 5882 5882 5881 5880 5878 5878 5880 5879 5879 5879 5878 5878 5878 5878 5877 5877 5876 5875 5875 5874 5873 5872 5872 5871 5871 5870 5869 5868 5868 5869 5869 5868 5867 5865 5865 5864 5861 5860 5859 5858 5858 5858 5858 5857 5856 5855 5855 5854 5853 5854 5852 5849 5849 5851 5850 5847 5846 5847 5847 5848
5874 5874 5874 5874 5875 5875 5875 5875 5876 5876 5876 5876 5876 5877 5877 5877 5877 5877 5877 5877 5877 5877 5877 5877 5877 5877 5878 5878 5879 5879 5878 5876 5874 5875 5877 5877 5876 5876 5876 5875 5875 5875 5874 5874 5873 5872 5872 5871 5870 5869 5869 5868 5868 5867 5866 5865 5864 5866 5867 5865 5863 5862 5863 5861 5858 5857 5856 5855 5855 5854 5854 5854 5853 5852 5852 5851 5851 5852 5850 5846 5845 5847 5847 5845 5844 5844 5844 5844
5870 5871 5871 5871 5871 5872 5872 5872 5873 5873 5873 5873 5873 5873 5873 5874 5873 5873 5874 5873 5874 5873 5874 5874 5874 5875 5875 5876 5876 5876 5876 5873 5870 5872 5874 5873 5873 5873 5873 5873 5872 5872 5871 5871 5870 5869 5869 5868 5867 5866 5866 5866 5865 5865 5864 5863 5862 5862 5864 5862 5860 5859 5860 5859 5856 5855 5853 5852 5851 5850 5850 5851 5849 5849 5850 5850 5849 5849 5846 5843 5842 5843 5843 5843 5843 5841 5841 5840
5867 5867 5867 5868 5868 5868 5868 5869 5869 5869 5870 5870 5870 5870 5870 5870 5870 5870 5870 5870 5870 5870 5871 5870 5871 5872 5872 5873 5873 5873 5874 5868 5866 5870 5871 5870 5870 5870 5870 5870 5869 5869 5869 5868 5867 5866 5865 5865 5864 5863 5863 5863 5862 5862 5861 5859 5859 5859 5860 5859 5857 5856 5856 5855 5853 5852 5850 5848 5847 5846 5846 5847 5845 5845 5849 5849 5846 5845 5842 5839 5839 5839 5840 5840 5841 5839 5838 5837
5863 5864 5864 5864 5864 5865 5865 5865 5865 5866 5866 5867 5867 5867 5867 5867 5867 5866 5866 5867 5867 5867 5868 5867 5868 5868 5869 5871 5870 5872 5870 5864 5864 5867 5867 5867 5867 5866 5866 5866 5866 5866 5865 5864 5864 5863 5862 5861 5861 5860 5859 5859 5859 5859 5857 5856 5856 5856 5856 5856 5855 5854 5853 5851 5850 5849 5846 5845 5843 5841 5842 5843 5841 5841 5847 5848 5842 5839 5838 5836 5836 5837 5838 5838 5837 5836 5834 5834
5860 5861 5861 5861 5861 5861 5862 5862 5862 5863 5863 5863 5864 5864 5864 5864 5864 5863 5863 5864 5864 5864 5865 5864 5865 5865 5866 5867 5868 5870 5866 5860 5862 5863 5863 5863 5863 5863 5863 5863 5863 5862 5862 5861 5860 5859 5858 5857 5857 5856 5855 5855 5856 5855 5854 5852 5852 5853 5851 5851 5852 5851 5849 5848 5848 5845 5842 5841 5839 5836 5837 5839 5837 5838 5844 5845 5839 5834 5834 5834 5834 5834 5835 5835 5834 5833 5831 5830
5856 5857 5858 5858 5858 5858 5859 5859 5859 5859 5860 5860 5861 5861 5861 5861 5861 5860 5860 5860 5860 5861 5861 5861 5862 5862 5863 5864 5866 5868 5861 5858 5861 5860 5859 5859 5859 5860 5860 5860 5859 5859 5858 5858 5857 5855 5854 5853 5853 5852 5850 5851 5852 5851 5851 5849 5849 5849 5847 5847 5848 5847 5846 5845 5844 5842 5838 5837 5835 5832 5832 5835 5834 5834 5840 5841 5835 5831 5831 5831 5831 5831 5832 5832 5830 5829 5827 5827
5852 5853 5854 5854 5855 5855 5855 5855 5855 5856 5856 5857 5857 5857 5858 5858 5857 5857 5857 5857 5857 5857 5857 5857 5858 5858 5859 5860 5863 5864 5859 5857 5858 5856 5855 5855 5855 5856 5856 5856 5856 5855 5854 5854 5852 5851 5850 5849 5849 5847 5846 5846 5847 5847 5847 5846 5845 5844 5843 5842 5843 5843 5843 5842 5840 5838 5833 5833 5833 5828 5827 5831 5832 5832 5835 5835 5830 5829 5829 5829 5828 5828 5829 5828 5826 5825 5824 5824
5848 5849 5850 5850 5851 5851 5851 5851 5851 5852 5852 5853 5853 5853 5854 5854 5854 5854 5853 5853 5853 5853 5853 5853 5853 5854 5855 5857 5859 5859 5856 5855 5854 5852 5851 5851 5851 5852 5852 5852 5852 5851 5850 5849 5848 5847 5846 5845 5845 5843 5842 5842 5843 5843 5843 5843 5841 5840 5839 5836 5838 5838 5839 5839 5835 5832 5830 5830 5831 5825 5820 5826 5830 5830 5831 5829 5824 5824 5825 5825 5825 5825 5825 5824 5823 5822 5821 5821
5844 5845 5845 5846 5846 5847 5847 5847 5847 5847 5848 5848 5849 5849 5850 5850 5850 5850 5849 5849 5848 5848 5848 5848 5849 5849 5850 5854 5855 5853 5853 5853 5851 5849 5848 5847 5847 5847 5847 5847 5847 5846 5846 5845 5844 5843 5842 5841 5840 5839 5839 5838 5839 5839 5838 5839 5837 5836 5835 5831 5831 5831 5833 5836 5830 5828 5829 5828 5827 5820 5813 5818 5826 5827 5828 5825 5820 5820 5821 5821 5822 5822 5822 5820 5819 5818 5817 5817
5839 5840 5841 5841 5842 5842 5842 5842 5842 5842 5843 5844 5844 5845 5845 5845 5845 5845 5845 5844 5844 5844 5843 5843 5844 5844 5845 5849 5851 5849 5849 5848 5846 5845 5844 5843 5843 5843 5843 5843 5842 5842 5841 5840 5840 5839 5838 5837 5836 5835 5835 5835 5835 5835 5834 5834 5831 5832 5831 5827 5826 5824 5826 5831 5828 5827 5829 5826 5822 5816 5808 5811 5820 5824 5824 5820 5817 5816 5816 5817 5818 5819 5819 5817 5816 5814 5813 5813
5834 5835 5836 5836 5837 5837 5837 5837 5837 5838 5838 5839 5839 5840 5840 5840 5840 5840 5840 5839 5839 5839 5839 5839 5839 5839 5839 5843 5846 5845 5845 5843 5841 5841 5840 5840 5840 5840 5840 5838 5838 5837 5836 5836 5836 5835 5834 5833 5832 5831 5831 5831 5831 5832 5831 5828 5826 5829 5826 5821 5822 5819 5819 5825 5827 5826 5825 5822 5818 5812 5804 5804 5813 5820 5820 5816 5814 5813 5811 5813 5815 5816 5815 5813 5812 5810 5809 5809
5830 5830 5831 5831 5831 5832 5832 5833 5833 5833 5834 5834 5834 5835 5835 5835 5835 5835 5835 5834 5834 5834 5834 5834 5835 5834 5834 5838 5841 5841 5840 5839 5837 5836 5836 5836 5836 5836 5836 5835 5834 5833 5832 5832 5831 5830 5830 5828 5827 5826 5826 5827 5828 5828 5826 5821 5821 5825 5820 5815 5816 5816 5815 5818 5822 5824 5822 5817 5811 5807 5801 5800 5806 5813 5814 5812 5811 5809 5808 5810 5811 5811 5810 5809 5808 5806 5805 5804
5825 5825 5826 5826 5826 5827 5827 5827 5828 5828 5829 5829 5829 5829 5830 5830 5830 5829 5829 5829 5829 5830 5830 5829 5830 5829 5829 5831 5835 5836 5835 5833 5832 5832 5832 5833 5833 5832 5832 5831 5830 5829 5828 5828 5827 5826 5825 5823 5822 5821 5821 5823 5825 5825 5819 5814 5816 5818 5815 5812 5811 5812 5811 5811 5816 5820 5819 5812 5805 5802 5799 5798 5802 5805 5807 5808 5807 5805 5804 5806 5807 5806 5805 5804 5802 5801 5801 5800
5819 5819 5820 5820 5821 5821 5822 5822 5823 5823 5823 5824 5824 5824 5824 5824 5824 5824 5824 5824 5824 5824 5824 5824 5824 5824 5823 5825 5828 5829 5829 5828 5828 5828 5829 5829 5829 5828 5827 5827 5826 5825 5824 5823 5823 5822 5820 5818 5817 5815 5817 5820 5822 5819 5813 5810 5811 5810 5809 5809 5806 5806 5806 5806 5810 5813 5812 5807 5801 5797 5795 5795 5797 5799 5802 5804 5803 5801 5801 5802 5802 5801 5800 5799 5798 5797 5796 5795
5814 5814 5814 5815 5816 5816 5816 5817 5817 5818 5818 5818 5818 5818 5818 5818 5818 5819 5818 5818 5819 5819 5819 5819 5819 5819 5818 5819 5821 5821 5822 5823 5824 5824 5825 5825 5824 5824 5823 5822 5821 5821 5820 5819 5818 5817 5815 5813 5811 5811 5814 5816 5815 5811 5807 5807 5807 5805 5804 5803 5801 5801 5800 5802 5805 5805 5803 5799 5795 5795 5793 5790 5792 5794 5797 5799 5798 5796 5797 5798 5797 5796 5796 5795 5794 5792 5790 5788
5808 5809 5809 5810 5810 5811 5811 5811 5812 5812 5812 5812 5812 5813 5813 5813 5813 5813 5813 5813 5813 5813 5814 5813 5813 5813 5813 5814 5814 5813 5815 5816 5817 5819 5820 5820 5820 5818 5817 5817 5816 5815 5815 5814 5812 5811 5811 5808 5806 5808 5811 5810 5807 5805 5804 5804 5802 5800 5798 5797 5796 5795 5794 5797 5799 5798 5796 5790 5786 5790 5790 5785 5786 5790 5792 5792 5792 5792 5793 5793 5792 5791 5791 5790 5789 5786 5784 5783
5802 5803 5804 5804 5804 5805 5805 5805 5806 5806 5807 5807 5807 5807 5807 5808 5808 5808 5808 5809 5809 5808 5808 5808 5807 5806 5807 5808 5808 5808 5808 5809 5811 5813 5814 5815 5814 5813 5812 5812 5811 5810 5810 5809 5807 5807 5806 5803 5801 5804 5805 5803 5801 5801 5800 5799 5797 5795 5793 5791 5790 5789 5789 5791 5792 5791 5790 5784 5779 5782 5782 5779 5781 5784 5785 5785 5785 5787 5789 5788 5787 5787 5786 5785 5783 5781 5779 5778
5796 5797 5798 5798 5798 5798 5799 5799 5800 5800 5801 5801 5801 5801 5801 5801 5802 5802 5802 5803 5805 5804 5802 5802 5801 5800 5800 5800 5801 5802 5802 5803 5805 5805 5806 5807 5808 5807 5807 5807 5806 5805 5804 5803 5803 5802 5800 5797 5798 5799 5798 5797 5796 5796 5795 5793 5792 5790 5788 5787 5784 5784 5784 5782 5784 5785 5784 5780 5776 5775 5773 5772 5774 5775 5776 5777 5778 5782 5785 5784 5782 5781 5781 5779 5777 5776 5774 5774
5791 5791 5791 5791 5792 5792 5792 5793 5794 5794 5795 5795 5795 5795 5795 5795 5795 5795 5795 5795 5798 5800 5799 5797 5795 5795 5795 5794 5795 5795 5796 5797 5798 5798 5799 5799 5800 5801 5801 5801 5800 5799 5798 5798 5798 5796 5793 5792 5793 5792 5791 5792 5791 5790 5788 5787 5787 5785 5784 5782 5779 5779 5779 5775 5775 5778 5777 5775 5772 5770 5768 5767 5767 5767 5767 5768 5769 5774 5779 5779 5776 5775 5775 5773 5773 5772 5770 5769
5785 5785 5785 5785 5786 5786 5786 5787 5787 5787 5788 5788 5789 5789 5789 5789 5789 5789 5789 5788 5789 5791 5793 5794 5791 5789 5788 5788 5789 5790 5790 5791 5791 5792 5792 5792 5793 5793 5793 5794 5793 5793 5793 5793 5792 5789 5787 5787 5788 5787 5786 5785 5784 5783 5782 5781 5781 5781 5779 5776 5775 5775 5774 5771 5769 5768 5769 5769 5768 5766 5762 5761 5760 5759 5761 5761 5760 5763 5769 5770 5769 5769 5769 5768 5768 5768 5766 5766
5779 5780 5780 5780 5780 5780 5780 5781 5781 5781 5782 5782 5782 5783 5783 5784 5784 5784 5783 5782 5782 5783 5784 5786 5786 5784 5783 5783 5783 5784 5785 5785 5786 5786 5785 5785 5786 5785 5786 5786 5786 5786 5786 5785 5784 5783 5782 5782 5782 5782 5780 5779 5777 5777 5776 5775 5775 5774 5773 5772 5771 5770 5768 5767 5765 5762 5760 5761 5763 5763 5759 5755 5753 5752 5755 5758 5756 5756 5759 5760 5760 5762 5762 5761 5762 5762 5761 5761
5774 5774 5775 5775 5775 5775 5776 5775 5775 5776 5776 5776 5777 5778 5778 5778 5778 5778 5778 5776 5777 5776 5775 5776 5778 5778 5779 5780 5779 5779 5779 5779 5780 5780 5779 5780 5779 5779 5779 5779 5779 5779 5779 5778 5777 5777 5777 5777 5777 5776 5774 5772 5771 5771 5770 5768 5767 5767 5767 5767 5766 5765 5763 5762 5761 5759 5756 5754 5755 5757 5755 5751 5748 5747 5749 5753 5753 5751 5752 5751 5752 5754 5755 5754 5755 5755 5755 5755
5768 5768 5769 5770 5770 5770 5770 5770 5770 5770 5770 5770 5771 5772 5772 5772 5772 5773 5773 5771 5772 5771 5767 5767 5770 5771 5773 5774 5774 5775 5774 5774 5774 5773 5773 5773 5773 5773 5773 5773 5773 5772 5772 5771 5770 5771 5771 5770 5770 5769 5768 5767 5766 5766 5764 5762 5761 5761 5762 5761 5759 5759 5758 5757 5756 5754 5753 5751 5748 5749 5750 5747 5745 5744 5745 5746 5746 5745 5746 5745 5745 5746 5747 5747 5747 5747 5747 5748
5762 5763 5763 5763 5764 5764 5764 5764 5764 5764 5764 5764 5765 5765 5765 5766 5767 5767 5767 5766 5766 5765 5761 5762 5763 5764 5766 5767 5768 5769 5769 5769 5768 5767 5767 5767 5766 5767 5766 5767 5767 5766 5766 5765 5764 5765 5765 5764 5764 5763 5762 5763 5762 5761 5759 5757 5756 5756 5756 5754 5753 5753 5752 5751 5750 5749 5748 5747 5743 5743 5745 5744 5742 5741 5740 5739 5737 5737 5740 5740 5739 5739 5739 5739 5741 5742 5741 5741
5756 5756 5757 5757 5757 5757 5758 5758 5758 5758 5758 5758 5758 5759 5759 5759 5760 5761 5761 5760 5759 5758 5757 5758 5758 5758 5760 5760 5761 5762 5761 5762 5762 5761 5762 5762 5761 5762 5761 5760 5760 5760 5759 5759 5759 5759 5758 5759 5758 5757 5757 5757 5757 5755 5754 5752 5751 5750 5750 5748 5747 5746 5745 5744 5743 5743 5742 5740 5739 5739 5740 5740 5739 5738 5736 5733 5731 5731 5734 5735 5734 5731 5731 5731 5731 5735 5736 5735
5749 5750 5750 5750 5751 5751 5752 5752 5752 5753 5753 5753 5753 5754 5754 5754 5755 5755 5753 5753 5753 5751 5752 5752 5751 5753 5754 5754 5754 5754 5753 5753 5754 5754 5755 5755 5756 5756 5755 5755 5754 5754 5752 5752 5754 5753 5753 5753 5752 5752 5751 5751 5750 5749 5748 5747 5745 5744 5744 5742 5740 5739 5738 5737 5736 5736 5735 5734 5734 5735 5736 5736 5735 5732 5730 5729 5727 5727 5727 5730 5731 5726 5724 5723 5723 5726 5727 5726
5743 5742 5743 5744 5744 5745 5746 5746 5747 5748 5747 5748 5748 5749 5749 5749 5750 5748 5746 5747 5746 5745 5748 5747 5745 5747 5748 5748 5747 5746 5746 5745 5746 5746 5746 5747 5748 5748 5748 5748 5748 5747 5746 5746 5747 5747 5747 5746 5746 5747 5746 5745 5744 5742 5742 5740 5739 5738 5737 5736 5734 5732 5731 5730 5729 5729 5728 5728 5730 5730 5729 5730 5731 5728 5726 5726 5725 5723 5722 5723 5724 5721 5717 5716 5718 5719 5719 5717
5737 5736 5736 5737 5738 5739 5739 5739 5740 5741 5741 5742 5742 5743 5744 5743 5744 5742 5741 5742 5740 5741 5744 5743 5741 5742 5741 5741 5741 5740 5739 5739 5738 5738 5738 5738 5739 5740 5741 5740 5740 5739 5737 5738 5738 5738 5739 5740 5740 5739 5739 5739 5737 5735 5734 5733 5732 5731 5730 5729 5727 5725 5725 5722 5721 5721 5722 5724 5724 5724 5722 5722 5725 5724 5722 5722 5721 5719 5719 5718 5716 5713 5709 5709 5710 5712 5712 5710
5731 5731 5731 5732 5733 5733 5733 5733 5733 5734 5734 5735 5735 5736 5737 5736 5737 5737 5737 5738 5737 5736 5739 5737 5735 5735 5735 5735 5734 5732 5732 5731 5731 5732 5731 5731 5731 5733 5734 5733 5733 5730 5728 5729 5729 5729 5730 5733 5734 5732 5731 5732 5730 5728 5727 5726 5725 5723 5723 5723 5720 5720 5718 5714 5714 5715 5716 5718 5717 5717 5716 5715 5718 5719 5716 5717 5715 5712 5713 5713 5710 5707 5704 5703 5703 5704 5704 5703
5724 5725 5726 5727 5728 5727 5727 5727 5727 5728 5727 5727 5728 5729 5729 5729 5730 5731 5732 5733 5732 5730 5732 5731 5730 5729 5729 5729 5727 5725 5724 5722 5724 5726 5725 5725 5724 5726 5727 5727 5726 5723 5720 5720 5720 5719 5718 5722 5727 5724 5723 5726 5725 5722 5720 5718 5717 5716 5717 5715 5712 5714 5712 5706 5707 5708 5709 5710 5709 5710 5709 5709 5713 5713 5711 5711 5708 5704 5704 5704 5704 5703 5700 5698 5697 5697 5696 5694
5717 5718 5719 5720 5721 5720 5720 5721 5721 5721 5720 5720 5721 5720 5721 5723 5725 5726 5726 5726 5724 5723 5724 5725 5725 5723 5722 5722 5721 5720 5718 5715 5715 5717 5717 5717 5717 5719 5721 5722 5721 5718 5715 5712 5711 5711 5709 5711 5717 5714 5712 5717 5717 5715 5713 5711 5709 5709 5710 5707 5705 5708 5706 5700 5697 5699 5701 5698 5699 5702 5700 5703 5709 5707 5706 5704 5699 5697 5697 5695 5695 5694 5692 5691 5689 5689 5688 5687
5709 5710 5711 5712 5712 5711 5711 5713 5714 5713 5713 5713 5712 5712 5716 5719 5719 5719 5718 5718 5717 5715 5715 5715 5716 5715 5714 5714 5715 5715 5712 5709 5708 5708 5709 5709 5709 5710 5713 5714 5713 5711 5709 5706 5704 5704 5701 5703 5710 5707 5703 5705 5706 5706 5706 5704 5702 5701 5701 5701 5700 5699 5697 5693 5688 5689 5691 5685 5687 5695 5693 5697 5704 5701 5701 5699 5690 5690 5691 5689 5687 5685 5684 5683 5681 5681 5680 5679
5700 5701 5703 5704 5702 5701 5703 5704 5704 5705 5705 5704 5703 5706 5711 5712 5713 5713 5711 5710 5709 5706 5706 5705 5706 5706 5706 5706 5708 5707 5704 5702 5701 5701 5703 5703 5701 5703 5704 5703 5703 5702 5701 5698 5696 5696 5693 5694 5701 5702 5697 5696 5697 5698 5696 5694 5694 5692 5692 5694 5694 5690 5687 5686 5680 5678 5680 5674 5675 5685 5686 5690 5693 5693 5695 5690 5683 5684 5684 5681 5679 5676 5676 5675 5673 5673 5672 5671
5692 5693 5695 5696 5694 5693 5695 5695 5695 5696 5695 5694 5695 5700 5704 5705 5706 5706 5703 5702 5701 5698 5697 5697 5698 5698 5698 5698 5699 5698 5696 5694 5693 5692 5694 5694 5692 5695 5697 5694 5694 5694 5693 5690 5687 5686 5683 5681 5687 5694 5692 5688 5690 5691 5688 5686 5685 5683 5682 5683 5683 5681 5679 5677 5673 5669 5670 5666 5665 5671 5676 5679 5683 5686 5687 5680 5677 5679 5675 5672 5671 5668 5667 5666 5664 5664 5663 5663
5685 5685 5686 5689 5687 5685 5687 5687 5686 5687 5685 5686 5690 5694 5695 5697 5698 5696 5695 5694 5692 5691 5689 5689 5690 5689 5690 5691 5691 5690 5689 5686 5685 5684 5684 5684 5684 5686 5687 5685 5686 5687 5684 5682 5679 5677 5676 5671 5672 5682 5685 5678 5678 5682 5680 5678 5678 5675 5674 5673 5672 5672 5670 5668 5665 5664 5663 5659 5658 5660 5662 5666 5675 5679 5676 5670 5671 5670 5666 5665 5664 5660 5658 5657 5656 5655 5654 5653
5678 5677 5678 5682 5679 5677 5679 5678 5677 5678 5677 5680 5685 5686 5686 5688 5689 5689 5687 5684 5682 5682 5681 5681 5682 5681 5682 5683 5683 5682 5681 5679 5679 5678 5676 5676 5677 5677 5678 5677 5678 5677 5675 5674 5672 5670 5669 5664 5661 5668 5674 5671 5669 5672 5671 5669 5668 5666 5666 5665 5664 5663 5662 5659 5657 5658 5657 5651 5650 5650 5648 5653 5665 5669 5665 5661 5661 5660 5658 5658 5655 5653 5650 5647 5646 5646 5644 5643
5671 5670 5671 5674 5672 5670 5671 5669 5669 5671 5670 5673 5677 5678 5678 5679 5680 5680 5677 5675 5673 5673 5673 5673 5673 5673 5673 5675 5675 5674 5672 5671 5672 5671 5668 5670 5670 5669 5671 5671 5670 5669 5668 5667 5666 5664 5661 5658 5654 5655 5661 5663 5663 5663 5661 5659 5658 5657 5657 5657 5657 5656 5656 5652 5648 5651 5651 5643 5641 5641 5636 5640 5653 5657 5655 5652 5649 5648 5649 5647 5645 5644 5641 5638 5636 5635 5635 5634
5663 5662 5664 5666 5664 5663 5662 5661 5663 5664 5663 5666 5669 5669 5668 5669 5670 5670 5668 5666 5665 5665 5665 5664 5664 5665 5665 5666 5666 5665 5664 5663 5664 5664 5662 5663 5663 5661 5662 5664 5663 5662 5661 5659 5658 5657 5654 5651 5648 5647 5650 5654 5656 5655 5652 5650 5650 5649 5647 5649 5650 5649 5648 5645 5640 5642 5642 5636 5635 5634 5627 5629 5641 5647 5645 5641 5639 5638 5636 5635 5635 5633 5632 5630 5627 5626 5625 5624
5655 5654 5656 5658 5656 5655 5654 5654 5657 5657 5657 5660 5661 5660 5659 5659 5661 5662 5659 5658 5656 5657 5657 5656 5658 5657 5657 5658 5658 5657 5657 5654 5654 5657 5656 5655 5656 5655 5655 5656 5655 5655 5653 5651 5649 5649 5647 5644 5641 5639 5640 5643 5646 5648 5645 5642 5642 5640 5639 5641 5641 5640 5640 5637 5633 5633 5631 5627 5629 5627 5619 5620 5631 5637 5634 5630 5628 5628 5626 5625 5625 5623 5622 5620 5618 5616 5615 5613
5646 5645 5648 5648 5647 5646 5646 5647 5650 5649 5651 5652 5651 5651 5652 5651 5653 5654 5652 5650 5649 5649 5648 5648 5651 5650 5649 5650 5649 5649 5649 5645 5644 5648 5649 5647 5647 5647 5647 5646 5647 5647 5646 5643 5641 5640 5639 5637 5635 5632 5631 5631 5635 5638 5637 5634 5633 5632 5631 5633 5632 5632 5633 5630 5627 5626 5620 5617 5622 5619 5611 5615 5623 5625 5623 5622 5620 5619 5618 5616 5615 5613 5612 5610 5608 5607 5605 5603
5636 5637 5639 5639 5638 5637 5638 5641 5642 5641 5642 5643 5642 5644 5644 5643 5646 5646 5644 5643 5642 5641 5641 5641 5642 5642 5642 5642 5641 5641 5641 5638 5636 5638 5641 5640 5639 5639 5639 5638 5638 5639 5637 5636 5635 5632 5629 5628 5628 5626 5624 5623 5624 5627 5628 5626 5623 5623 5624 5625 5625 5625 5625 5623 5620 5617 5611 5609 5612 5610 5605 5609 5613 5613 5613 5615 5613 5610 5609 5607 5606 5604 5602 5601 5599 5598 5596 5593
5627 5628 5630 5631 5629 5629 5631 5633 5634 5634 5634 5634 5633 5636 5637 5636 5637 5637 5635 5635 5634 5633 5633 5633 5633 5633 5633 5633 5632 5632 5633 5632 5628 5628 5632 5633 5630 5630 5631 5630 5630 5630 5629 5629 5628 5626 5621 5619 5620 5620 5617 5616 5616 5617 5618 5616 5612 5613 5615 5617 5618 5618 5617 5615 5609 5605 5605 5603 5599 5601 5603 5601 5602 5605 5605 5605 5603 5599 5597 5596 5596 5595 5594 5592 5590 5588 5586 5584
5619 5619 5621 5621 5620 5621 5624 5625 5626 5626 5626 5625 5624 5628 5630 5629 5628 5628 5628 5627 5626 5626 5624 5624 5625 5625 5625 5625 5624 5622 5624 5624 5621 5620 5623 5624 5622 5621 5622 5623 5622 5621 5621 5620 5619 5618 5613 5609 5613 5612 5608 5609 5610 5609 5609 5606 5603 5603 5605 5608 5610 5609 5608 5605 5598 5597 5600 5592 5584 5592 5599 5591 5589 5597 5596 5592 5590 5588 5586 5585 5585 5586 5584 5582 5581 5579 5577 5575
5611 5611 5612 5612 5612 5614 5615 5617 5618 5617 5617 5617 5616 5619 5622 5622 5620 5620 5619 5618 5618 5618 5616 5615 5617 5617 5616 5616 5615 5613 5615 5615 5613 5613 5615 5615 5615 5613 5613 5614 5614 5613 5613 5611 5610 5609 5603 5601 5605 5603 5598 5601 5603 5602 5600 5597 5594 5593 5595 5597 5599 5600 5599 5594 5589 5591 5591 5581 5574 5583 5587 5580 5579 5584 5582 5579 5578 5577 5576 5575 5574 5574 5573 5571 5570 5568 5566 5564
5604 5604 5604 5604 5605 5606 5606 5608 5609 5609 5609 5609 5609 5611 5613 5614 5613 5611 5610 5610 5609 5610 5609 5607 5608 5609 5608 5608 5606 5604 5606 5606 5604 5605 5607 5606 5606 5605 5604 5604 5604 5605 5605 5603 5601 5598 5594 5594 5596 5592 5589 5592 5595 5595 5592 5587 5584 5584 5584 5585 5587 5589 5589 5585 5582 5583 5580 5572 5569 5572 5570 5567 5570 5571 5568 5567 5566 5565 5564 5563 5563 5562 5560 5559 5558 5556 5555 5554
5596 5597 5596 5596 5597 5598 5598 5599 5600 5600 5600 5600 5601 5604 5605 5605 5605 5602 5601 5601 5601 5601 5602 5600 5600 5601 5600 5600 5599 5597 5598 5598 5596 5597 5598 5597 5597 5597 5596 5595 5596 5596 5595 5595 5593 5589 5586 5587 5586 5583 5579 5580 5586 5587 5582 5578 5576 5573 5572 5575 5578 5578 5576 5575 5575 5574 5570 5564 5562 5562 5556 5554 5558 5558 5556 5554 5554 5553 5552 5551 5551 5550 5548 5547 5546 5545 5545 5543
5587 5588 5588 5588 5588 5589 5589 5590 5591 5591 5591 5591 5592 5594 5595 5595 5596 5594 5592 5592 5593 5593 5593 5592 5592 5592 5591 5591 5591 5590 5590 5589 5588 5588 5589 5589 5588 5589 5588 5587 5587 5588 5587 5587 5585 5581 5580 5578 5578 5576 5567 5568 5577 5575 5569 5569 5566 5560 5563 5569 5571 5567 5563 5562 5563 5563 5561 5556 5554 5552 5546 5544 5545 5545 5542 5540 5540 5541 5541 5540 5539 5537 5535 5534 5533 5533 5533 5532
5578 5579 5580 5579 5579 5581 5582 5581 5581 5581 5583 5584 5583 5584 5585 5586 5587 5585 5583 5583 5584 5584 5584 5584 5583 5583 5582 5582 5583 5582 5581 5580 5580 5580 5580 5580 5580 5579 5579 5579 5579 5579 5579 5578 5575 5574 5573 5568 5568 5567 5557 5558 5567 5563 5557 5558 5551 5549 5560 5566 5561 5556 5552 5549 5549 5551 5551 5547 5543 5540 5537 5534 5533 5531 5529 5527 5526 5527 5528 5528 5528 5526 5523 5521 5520 5520 5520 5519